| time (UTC) | temp F | wind direction | speed MPH | gust MPH | rain 1hr in | rain 24hr in | rain mn in | humidity % | barometer mb |
| 20260901160026 | 34 | 58 | 0.0 | 0.0 | 0.00 | 0.00 | 0.01 | 98 | 1008.9 |
| 20260901154526 | 33 | 58 | 0.0 | 0.0 | 0.00 | 0.00 | 0.01 | 97 | 1008.7 |
| 20260901153026 | 32 | 22 | 0.0 | 0.0 | 0.00 | 0.00 | 0.01 | 97 | 1008.7 |
| 20260901151525 | 32 | 22 | 0.0 | 0.0 | 0.00 | 0.00 | 0.01 | 97 | 1008.8 |
| 20260901150035 | 31 | 21 | 0.0 | 0.0 | 0.00 | 0.00 | 0.01 | 97 | 1008.8 |
| 20260901144535 | 31 | 21 | 0.0 | 0.0 | 0.00 | 0.00 | 0.01 | 97 | 1008.9 |
| 20260901143006 | 31 | 22 | 0.0 | 0.0 | 0.00 | 0.00 | 0.01 | 96 | 1008.8 |
| 20260901141505 | 32 | 22 | 0.0 | 0.0 | 0.00 | 0.00 | 0.01 | 96 | 1008.7 |
| 20260901140047 | 32 | 21 | 0.0 | 0.0 | 0.00 | 0.00 | 0.01 | 96 | 1008.6 |
| 20260901134548 | 34 | 21 | 0.0 | 0.0 | 0.00 | 0.00 | 0.01 | 97 | 1008.6 |
| 20260901133028 | 34 | 22 | 0.0 | 0.0 | 0.00 | 0.00 | 0.01 | 97 | 1008.6 |
| 20260901131527 | 34 | 22 | 0.0 | 0.0 | 0.00 | 0.00 | 0.01 | 97 | 1008.7 |
| 20260901130017 | 34 | 21 | 0.0 | 0.0 | 0.00 | 0.00 | 0.01 | 97 | 1008.8 |
| 20260901124515 | 35 | 22 | 0.0 | 0.0 | 0.00 | 0.00 | 0.01 | 97 | 1008.8 |
| 20260901123058 | 35 | 22 | 0.0 | 0.0 | 0.00 | 0.00 | 0.01 | 97 | 1008.9 |
| 20260901121557 | 35 | 22 | 0.0 | 0.0 | 0.00 | 0.00 | 0.01 | 97 | 1008.8 |
| 20260901120056 | 34 | 22 | 0.0 | 0.0 | 0.00 | 0.00 | 0.01 | 97 | 1008.6 |
| 20260901114637 | 34 | 22 | 0.0 | 0.0 | 0.00 | 0.00 | 0.01 | 97 | 1008.7 |
| 20260901113057 | 33 | 22 | 0.0 | 0.0 | 0.00 | 0.00 | 0.01 | 96 | 1008.7 |
| 20260901111555 | 34 | 21 | 0.0 | 0.0 | 0.00 | 0.00 | 0.01 | 97 | 1008.6 |
| 20260901110054 | 33 | 21 | 0.0 | 0.0 | 0.00 | 0.00 | 0.01 | 96 | 1008.6 |
| 20260901104553 | 33 | 21 | 0.0 | 0.0 | 0.00 | 0.00 | 0.01 | 96 | 1008.6 |
| 20260901103036 | 33 | 22 | 0.0 | 0.0 | 0.00 | 0.00 | 0.01 | 96 | 1008.6 |
| 20260901101535 | 32 | 22 | 0.0 | 0.0 | 0.00 | 0.00 | 0.01 | 96 | 1008.6 |
| 20260901100022 | 32 | 22 | 0.0 | 0.0 | 0.00 | 0.00 | 0.01 | 96 | 1008.4 |
| 20260901094535 | 32 | 22 | 0.0 | 0.0 | 0.00 | 0.00 | 0.01 | 96 | 1008.5 |
| 20260901093021 | 32 | 22 | 0.0 | 0.0 | 0.00 | 0.00 | 0.01 | 95 | 1008.4 |
| 20260901091519 | 33 | 21 | 0.0 | 0.0 | 0.00 | 0.00 | 0.01 | 95 | 1008.3 |
| 20260901090015 | 33 | 22 | 0.0 | 0.0 | 0.00 | 0.00 | 0.01 | 95 | 1008.2 |
| 20260901084513 | 34 | 22 | 0.0 | 0.0 | 0.00 | 0.00 | 0.01 | 93 | 1007.9 |
| 20260901083009 | 36 | 22 | 0.0 | 0.0 | 0.00 | 0.00 | 0.01 | 94 | 1007.8 |
| 20260901081510 | 37 | 22 | 0.0 | 0.0 | 0.00 | 0.00 | 0.01 | 93 | 1007.7 |
| 20260901080045 | 39 | 22 | 0.0 | 0.0 | 0.00 | 0.00 | 0.01 | 92 | 1007.6 |
| 20260901074547 | 40 | 22 | 0.0 | 0.0 | 0.00 | 0.00 | 0.01 | 92 | 1007.7 |
| 20260901073026 | 40 | 21 | 0.0 | 0.0 | 0.00 | 0.00 | 0.01 | 93 | 1007.6 |
| 20260901071524 | 40 | 21 | 0.0 | 0.0 | 0.00 | 0.00 | 0.01 | 93 | 1007.6 |
| 20260901070006 | 41 | 22 | 0.0 | 0.0 | 0.00 | 0.00 | 0.01 | 93 | 1007.6 |
| 20260901064515 | 41 | 22 | 0.0 | 0.0 | 0.00 | 0.00 | 0.01 | 92 | 1007.6 |
| 20260901063047 | 41 | 22 | 0.0 | 0.0 | 0.00 | 0.00 | 0.01 | 92 | 1007.6 |
| 20260901061546 | 42 | 22 | 0.0 | 0.0 | 0.00 | 0.00 | 0.01 | 91 | 1007.5 |
| 20260901060028 | 42 | 22 | 0.0 | 0.0 | 0.00 | 0.00 | 0.01 | 90 | 1007.4 |
| 20260901054529 | 43 | 22 | 0.0 | 0.0 | 0.00 | 0.00 | 0.01 | 88 | 1007.4 |
| 20260901053009 | 43 | 22 | 0.0 | 0.0 | 0.00 | 0.00 | 0.01 | 87 | 1007.3 |
| 20260901051508 | 43 | 21 | 0.0 | 0.0 | 0.00 | 0.00 | 0.01 | 86 | 1007.2 |
| 20260901050054 | 44 | 22 | 0.0 | 0.0 | 0.00 | 0.00 | 0.01 | 85 | 1007.1 |
| 20260901044557 | 44 | 22 | 0.0 | 0.0 | 0.00 | 0.00 | 0.01 | 84 | 1007.1 |
| 20260901043031 | 44 | 23 | 0.0 | 0.0 | 0.00 | 0.00 | 0.01 | 83 | 1007.1 |
| 20260901041532 | 44 | 26 | 0.0 | 0.0 | 0.00 | 0.00 | 0.01 | 82 | 1006.9 |
| 20260901040011 | 45 | 27 | 0.0 | 0.0 | 0.00 | 0.00 | 0.01 | 82 | 1006.7 |
| 20260901034510 | 45 | 27 | 0.0 | 0.0 | 0.00 | 0.00 | 0.01 | 81 | 1006.5 |
| 20260901033106 | 45 | 347 | 0.0 | 0.0 | 0.00 | 0.00 | 0.01 | 82 | 1006.5 |
| 20260901031550 | 45 | 347 | 0.0 | 0.0 | 0.00 | 0.00 | 0.01 | 81 | 1006.3 |
| 20260901030035 | 46 | 14 | 1.0 | 0.0 | 0.00 | 0.00 | 0.01 | 79 | 1006.2 |
| 20260901024529 | 47 | 267 | 1.0 | 0.0 | 0.00 | 0.00 | 0.01 | 78 | 1005.9 |
| 20260901023011 | 46 | 32 | 3.0 | 0.0 | 0.00 | 0.00 | 0.01 | 79 | 1005.8 |
| 20260901021516 | 47 | 16 | 4.0 | 0.0 | 0.00 | 0.00 | 0.01 | 78 | 1005.8 |
| 20260901020049 | 47 | 5 | 6.0 | 0.0 | 0.00 | 0.00 | 0.01 | 79 | 1005.6 |
| 20260901014548 | 47 | 337 | 5.0 | 0.0 | 0.00 | 0.00 | 0.01 | 81 | 1005.6 |
| 20260901013047 | 46 | 17 | 5.0 | 0.0 | 0.00 | 0.00 | 0.01 | 83 | 1005.5 |
| 20260901011542 | 46 | 44 | 2.0 | 0.0 | 0.00 | 0.00 | 0.01 | 83 | 1005.4 |
| 20260901010033 | 46 | 51 | 1.0 | 0.0 | 0.00 | 0.00 | 0.01 | 82 | 1005.2 |
| 20260901004529 | 45 | 351 | 2.0 | 0.0 | 0.00 | 0.00 | 0.01 | 83 | 1005.3 |
| 20260901003038 | 45 | 13 | 3.0 | 0.0 | 0.00 | 0.00 | 0.01 | 85 | 1005.3 |
| 20260901001527 | 45 | 5 | 2.0 | 0.0 | 0.00 | 0.00 | 0.01 | 85 | 1005.1 |
| 20260901000032 | 45 | 20 | 4.0 | 0.0 | 0.00 | 0.00 | 0.01 | 85 | 1005.0 |
| 20260831234524 | 45 | 5 | 4.0 | 0.0 | 0.00 | 0.00 | 0.01 | 87 | 1004.8 |
| 20260831233003 | 45 | 19 | 4.0 | 0.0 | 0.00 | 0.00 | 0.01 | 88 | 1004.7 |
| 20260831231503 | 45 | 340 | 2.0 | 0.0 | 0.00 | 0.00 | 0.01 | 88 | 1004.6 |
| 20260831230045 | 44 | 15 | 4.0 | 0.0 | 0.00 | 0.00 | 0.01 | 88 | 1004.6 |
| 20260831224546 | 44 | 350 | 2.0 | 0.0 | 0.00 | 0.00 | 0.01 | 90 | 1004.5 |
| 20260831223033 | 44 | 22 | 5.0 | 0.0 | 0.00 | 0.00 | 0.01 | 90 | 1004.4 |
| 20260831221522 | 43 | 22 | 1.0 | 0.0 | 0.00 | 0.00 | 0.01 | 91 | 1004.4 |
| 20260831220019 | 43 | 346 | 1.0 | 0.0 | 0.00 | 0.00 | 0.01 | 91 | 1004.3 |
| 20260831214506 | 42 | 336 | 3.0 | 0.0 | 0.00 | 0.00 | 0.01 | 92 | 1004.2 |
| 20260831213008 | 42 | 19 | 3.0 | 0.0 | 0.00 | 0.00 | 0.01 | 92 | 1004.3 |
| 20260831211503 | 42 | 18 | 3.0 | 0.0 | 0.00 | 0.00 | 0.01 | 93 | 1004.2 |
| 20260831210002 | 42 | 21 | 5.0 | 0.0 | 0.00 | 0.00 | 0.01 | 92 | 1004.1 |
| 20260831204500 | 42 | 15 | 2.0 | 0.0 | 0.00 | 0.00 | 0.00 | 92 | 1003.9 |
| 20260831203106 | 42 | 21 | 0.0 | 0.0 | 0.00 | 0.00 | 0.00 | 92 | 1003.7 |
| 20260831201557 | 41 | 79 | 1.0 | 0.0 | 0.00 | 0.00 | 0.00 | 92 | 1003.6 |
| 20260831200041 | 41 | 349 | 1.0 | 0.0 | 0.00 | 0.00 | 0.00 | 94 | 1003.4 |
| 20260831194540 | 40 | 47 | 6.0 | 0.0 | 0.00 | 0.00 | 0.00 | 94 | 1003.4 |
| 20260831193017 | 40 | 5 | 3.0 | 0.0 | 0.00 | 0.00 | 0.00 | 94 | 1003.2 |
| 20260831191517 | 41 | 312 | 2.0 | 0.0 | 0.00 | 0.00 | 0.00 | 100 | 1003.0 |
| 20260831190108 | 40 | 306 | 2.0 | 0.0 | 0.00 | 0.00 | 0.00 | 94 | 1003.0 |
| 20260831184556 | 41 | 311 | 2.0 | 0.0 | 0.00 | 0.00 | 0.00 | 92 | 1002.9 |
| 20260831183040 | 41 | 74 | 1.0 | 0.0 | 0.00 | 0.00 | 0.00 | 92 | 1002.7 |
| 20260831181535 | 41 | 69 | 0.0 | 0.0 | 0.00 | 0.00 | 0.00 | 93 | 1002.6 |
| 20260831180016 | 41 | 46 | 2.0 | 0.0 | 0.00 | 0.00 | 0.00 | 94 | 1002.6 |
| 20260831174513 | 40 | 40 | 2.0 | 0.0 | 0.00 | 0.00 | 0.00 | 95 | 1002.5 |
| 20260831173112 | 40 | 321 | 4.0 | 0.0 | 0.00 | 0.00 | 0.00 | 96 | 1002.4 |
| 20260831171551 | 40 | 342 | 3.0 | 0.0 | 0.00 | 0.00 | 0.10 | 97 | 1002.3 |
| 20260831170052 | 39 | 329 | 0.0 | 0.0 | 0.00 | 0.00 | 0.10 | 98 | 1002.3 |
| 20260831164542 | 39 | 336 | 0.0 | 0.0 | 0.00 | 0.00 | 0.10 | 98 | 1002.2 |
| 20260831163040 | 38 | 337 | 0.0 | 0.0 | 0.00 | 0.00 | 0.10 | 98 | 1002.2 |
| 20260831161544 | 38 | 336 | 0.0 | 0.0 | 0.00 | 0.00 | 0.10 | 98 | 1002.1 |